| time (UTC) | temp C | wind direction | speed KPH | gust KPH | rain 1hr cm | rain 24hr cm | rain mn cm | humidity % | barometer mb |
| 20260904030503 | 24 | 222 | 11.3 | 20.9 | 0.00 | 0.00 | 0.00 | 34 | 1018.8 |
| 20260904025005 | 24 | 229 | 14.5 | 19.3 | 0.00 | 0.00 | 0.00 | 34 | 1018.9 |
| 20260904024504 | 24 | 236 | 8.0 | 19.3 | 0.00 | 0.00 | 0.00 | 34 | 1019.0 |
| 20260904024005 | 25 | 237 | 8.0 | 19.3 | 0.00 | 0.00 | 0.00 | 33 | 1019.0 |
| 20260904023505 | 25 | 236 | 9.7 | 19.3 | 0.00 | 0.00 | 0.00 | 32 | 1018.9 |
| 20260904023004 | 25 | 216 | 9.7 | 19.3 | 0.00 | 0.00 | 0.00 | 30 | 1018.8 |
| 20260904022504 | 25 | 206 | 6.4 | 11.3 | 0.00 | 0.00 | 0.00 | 30 | 1018.8 |
| 20260904022005 | 25 | 223 | 8.0 | 14.5 | 0.00 | 0.00 | 0.00 | 31 | 1018.9 |
| 20260904021504 | 25 | 242 | 3.2 | 9.7 | 0.00 | 0.00 | 0.00 | 31 | 1018.9 |
| 20260904021004 | 26 | 270 | 6.4 | 19.3 | 0.00 | 0.00 | 0.00 | 30 | 1019.0 |
| 20260904020504 | 26 | 224 | 9.7 | 19.3 | 0.00 | 0.00 | 0.00 | 30 | 1018.9 |
| 20260904020005 | 26 | 238 | 9.7 | 19.3 | 0.00 | 0.00 | 0.00 | 28 | 1019.0 |
| 20260904015504 | 26 | 210 | 12.9 | 19.3 | 0.00 | 0.00 | 0.00 | 27 | 1018.9 |
| 20260904015005 | 26 | 208 | 11.3 | 19.3 | 0.00 | 0.00 | 0.00 | 28 | 1018.9 |
| 20260904014504 | 27 | 218 | 11.3 | 20.9 | 0.00 | 0.00 | 0.00 | 27 | 1018.8 |
| 20260904014004 | 27 | 225 | 16.1 | 25.7 | 0.00 | 0.00 | 0.00 | 27 | 1018.9 |
| 20260904013504 | 27 | 216 | 14.5 | 25.7 | 0.00 | 0.00 | 0.00 | 27 | 1018.9 |
| 20260904012503 | 27 | 217 | 11.3 | 20.9 | 0.00 | 0.00 | 0.00 | 25 | 1018.8 |
| 20260904011505 | 28 | 214 | 16.1 | 25.7 | 0.00 | 0.00 | 0.00 | 24 | 1018.7 |
| 20260904011005 | 28 | 210 | 11.3 | 19.3 | 0.00 | 0.00 | 0.00 | 24 | 1018.8 |
| 20260904010504 | 28 | 220 | 14.5 | 24.1 | 0.00 | 0.00 | 0.00 | 23 | 1018.8 |
| 20260904010004 | 28 | 216 | 14.5 | 24.1 | 0.00 | 0.00 | 0.00 | 23 | 1018.7 |
| 20260904005504 | 28 | 207 | 16.1 | 24.1 | 0.00 | 0.00 | 0.00 | 23 | 1018.7 |
| 20260904005004 | 29 | 229 | 12.9 | 27.4 | 0.00 | 0.00 | 0.00 | 23 | 1018.7 |
| 20260904004504 | 29 | 230 | 11.3 | 20.9 | 0.00 | 0.00 | 0.00 | 22 | 1018.7 |
| 20260904004004 | 29 | 229 | 19.3 | 27.4 | 0.00 | 0.00 | 0.00 | 22 | 1018.7 |
| 20260904003505 | 29 | 222 | 14.5 | 25.7 | 0.00 | 0.00 | 0.00 | 22 | 1018.8 |
| 20260904003004 | 29 | 226 | 16.1 | 25.7 | 0.00 | 0.00 | 0.00 | 21 | 1018.8 |
| 20260904002004 | 29 | 208 | 22.5 | 32.2 | 0.00 | 0.00 | 0.00 | 21 | 1019.0 |
| 20260904001504 | 29 | 217 | 16.1 | 24.1 | 0.00 | 0.00 | 0.00 | 19 | 1018.9 |
| 20260904001004 | 30 | 220 | 16.1 | 27.4 | 0.00 | 0.00 | 0.00 | 19 | 1019.0 |
| 20260904000504 | 29 | 182 | 16.1 | 27.4 | 0.00 | 0.00 | 0.00 | 19 | 1018.9 |
| 20260904000004 | 30 | 199 | 14.5 | 25.7 | 0.00 | 0.00 | 0.00 | 19 | 1019.0 |
| 20260903235004 | 30 | 201 | 17.7 | 27.4 | 0.00 | 0.00 | 0.00 | 18 | 1019.2 |
| 20260903234505 | 30 | 179 | 20.9 | 35.4 | 0.00 | 0.00 | 0.00 | 18 | 1019.3 |
| 20260903234004 | 30 | 174 | 19.3 | 40.2 | 0.00 | 0.00 | 0.00 | 19 | 1019.3 |
| 20260903233504 | 30 | 178 | 20.9 | 37.0 | 0.00 | 0.00 | 0.00 | 18 | 1019.3 |
| 20260903233004 | 30 | 203 | 16.1 | 32.2 | 0.00 | 0.00 | 0.00 | 18 | 1019.3 |
| 20260903232504 | 30 | 177 | 19.3 | 32.2 | 0.00 | 0.00 | 0.00 | 18 | 1019.3 |
| 20260903231504 | 30 | 181 | 16.1 | 25.7 | 0.00 | 0.00 | 0.00 | 18 | 1019.4 |
| 20260903230504 | 30 | 157 | 19.3 | 33.8 | 0.00 | 0.00 | 0.00 | 18 | 1019.5 |
| 20260903230003 | 30 | 179 | 17.7 | 32.2 | 0.00 | 0.00 | 0.00 | 17 | 1019.5 |
| 20260903225503 | 30 | 162 | 20.9 | 38.6 | 0.00 | 0.00 | 0.00 | 17 | 1019.5 |
| 20260903225003 | 30 | 158 | 24.1 | 32.2 | 0.00 | 0.00 | 0.00 | 17 | 1019.6 |
| 20260903224503 | 30 | 173 | 19.3 | 32.2 | 0.00 | 0.00 | 0.00 | 17 | 1019.6 |
| 20260903224003 | 30 | 199 | 20.9 | 29.0 | 0.00 | 0.00 | 0.00 | 17 | 1019.6 |
| 20260903223503 | 30 | 185 | 19.3 | 32.2 | 0.00 | 0.00 | 0.00 | 17 | 1019.7 |
| 20260903222502 | 30 | 172 | 19.3 | 35.4 | 0.00 | 0.00 | 0.00 | 17 | 1019.8 |
| 20260903222003 | 30 | 174 | 17.7 | 29.0 | 0.00 | 0.00 | 0.00 | 17 | 1019.8 |
| 20260903221502 | 30 | 205 | 19.3 | 29.0 | 0.00 | 0.00 | 0.00 | 17 | 1019.9 |
| 20260903221002 | 30 | 188 | 25.7 | 33.8 | 0.00 | 0.00 | 0.00 | 17 | 1020.0 |
| 20260903220502 | 30 | 192 | 17.7 | 32.2 | 0.00 | 0.00 | 0.00 | 17 | 1020.0 |
| 20260903220003 | 30 | 185 | 19.3 | 32.2 | 0.00 | 0.00 | 0.00 | 17 | 1020.0 |
| 20260903215502 | 31 | 198 | 17.7 | 27.4 | 0.00 | 0.00 | 0.00 | 17 | 1020.0 |
| 20260903215002 | 30 | 167 | 20.9 | 27.4 | 0.00 | 0.00 | 0.00 | 17 | 1020.1 |
| 20260903214503 | 30 | 192 | 20.9 | 32.2 | 0.00 | 0.00 | 0.00 | 17 | 1020.1 |
| 20260903214003 | 30 | 179 | 22.5 | 33.8 | 0.00 | 0.00 | 0.00 | 15 | 1020.0 |
| 20260903213503 | 30 | 155 | 19.3 | 25.7 | 0.00 | 0.00 | 0.00 | 14 | 1020.1 |
| 20260903212003 | 30 | 178 | 22.5 | 32.2 | 0.00 | 0.00 | 0.00 | 15 | 1020.1 |
| 20260903211504 | 30 | 151 | 20.9 | 27.4 | 0.00 | 0.00 | 0.00 | 14 | 1020.2 |
| 20260903211004 | 30 | 149 | 20.9 | 33.8 | 0.00 | 0.00 | 0.00 | 14 | 1020.3 |
| 20260903210502 | 30 | 148 | 22.5 | 35.4 | 0.00 | 0.00 | 0.00 | 14 | 1020.2 |
| 20260903210002 | 30 | 157 | 22.5 | 37.0 | 0.00 | 0.00 | 0.00 | 14 | 1020.2 |
| 20260903205503 | 30 | 180 | 20.9 | 37.0 | 0.00 | 0.00 | 0.00 | 14 | 1020.3 |
| 20260903205003 | 30 | 160 | 22.5 | 32.2 | 0.00 | 0.00 | 0.00 | 14 | 1020.3 |
| 20260903204503 | 30 | 172 | 19.3 | 35.4 | 0.00 | 0.00 | 0.00 | 14 | 1020.3 |
| 20260903204003 | 30 | 158 | 19.3 | 40.2 | 0.00 | 0.00 | 0.00 | 14 | 1020.2 |
| 20260903203502 | 30 | 175 | 19.3 | 32.2 | 0.00 | 0.00 | 0.00 | 13 | 1020.2 |
| 20260903203002 | 30 | 196 | 20.9 | 27.4 | 0.00 | 0.00 | 0.00 | 13 | 1020.4 |
| 20260903202003 | 30 | 164 | 14.5 | 29.0 | 0.00 | 0.00 | 0.00 | 13 | 1020.6 |
| 20260903200502 | 30 | 188 | 16.1 | 25.7 | 0.00 | 0.00 | 0.00 | 14 | 1020.8 |
| 20260903200002 | 30 | 170 | 16.1 | 25.7 | 0.00 | 0.00 | 0.00 | 14 | 1020.9 |
| 20260903195004 | 29 | 208 | 14.5 | 29.0 | 0.00 | 0.00 | 0.00 | 14 | 1020.8 |
| 20260903194518 | 29 | 159 | 12.9 | 24.1 | 0.00 | 0.00 | 0.00 | 14 | 1020.9 |
| 20260903194023 | 29 | 171 | 14.5 | 22.5 | 0.00 | 0.00 | 0.00 | 14 | 1021.0 |
| 20260903193522 | 29 | 194 | 11.3 | 24.1 | 0.00 | 0.00 | 0.00 | 14 | 1021.0 |
| 20260903193004 | 29 | 187 | 11.3 | 20.9 | 0.00 | 0.00 | 0.00 | 14 | 1021.3 |
| 20260903192503 | 28 | 184 | 16.1 | 22.5 | 0.00 | 0.00 | 0.00 | 14 | 1021.3 |
| 20260903191502 | 28 | 193 | 9.7 | 24.1 | 0.00 | 0.00 | 0.00 | 15 | 1021.4 |
| 20260903191003 | 28 | 189 | 12.9 | 25.7 | 0.00 | 0.00 | 0.00 | 15 | 1021.4 |
| 20260903190003 | 28 | 196 | 14.5 | 24.1 | 0.00 | 0.00 | 0.00 | 15 | 1021.6 |
| 20260903185503 | 28 | 170 | 16.1 | 32.2 | 0.00 | 0.00 | 0.00 | 15 | 1021.5 |
| 20260903185002 | 28 | 152 | 14.5 | 29.0 | 0.00 | 0.00 | 0.00 | 15 | 1021.7 |
| 20260903184003 | 28 | 181 | 9.7 | 19.3 | 0.00 | 0.00 | 0.00 | 16 | 1021.9 |
| 20260903183503 | 28 | 182 | 8.0 | 19.3 | 0.00 | 0.00 | 0.00 | 16 | 1021.9 |
| 20260903183003 | 28 | 181 | 6.4 | 22.5 | 0.00 | 0.00 | 0.00 | 16 | 1022.0 |
| 20260903182503 | 28 | 212 | 3.2 | 11.3 | 0.00 | 0.00 | 0.00 | 15 | 1022.1 |
| 20260903182003 | 28 | 211 | 9.7 | 19.3 | 0.00 | 0.00 | 0.00 | 16 | 1022.1 |
| 20260903181503 | 27 | 161 | 4.8 | 16.1 | 0.00 | 0.00 | 0.00 | 16 | 1022.2 |
| 20260903180503 | 27 | 264 | 6.4 | 11.3 | 0.00 | 0.00 | 0.00 | 15 | 1022.2 |
| 20260903180003 | 27 | 233 | 1.6 | 4.8 | 0.00 | 0.00 | 0.00 | 15 | 1022.1 |
| 20260903175503 | 27 | 218 | 4.8 | 11.3 | 0.00 | 0.00 | 0.00 | 15 | 1022.1 |
| 20260903175004 | 27 | 195 | 8.0 | 14.5 | 0.00 | 0.00 | 0.00 | 15 | 1022.1 |
| 20260903174004 | 27 | 134 | 4.8 | 11.3 | 0.00 | 0.00 | 0.00 | 15 | 1022.1 |
| 20260903173003 | 27 | 147 | 3.2 | 12.9 | 0.00 | 0.00 | 0.00 | 16 | 1021.9 |
| 20260903172503 | 26 | 132 | 4.8 | 19.3 | 0.00 | 0.00 | 0.00 | 16 | 1021.9 |
| 20260903172003 | 26 | 89 | 0.0 | 4.8 | 0.00 | 0.00 | 0.00 | 16 | 1021.9 |
| 20260903171504 | 26 | 95 | 1.6 | 9.7 | 0.00 | 0.00 | 0.00 | 16 | 1021.9 |
| 20260903171003 | 26 | 105 | 1.6 | 9.7 | 0.00 | 0.00 | 0.00 | 16 | 1021.9 |
| 20260903165003 | 25 | 106 | 1.6 | 4.8 | 0.00 | 0.00 | 0.00 | 17 | 1022.1 |
| 20260903164003 | 25 | 143 | 4.8 | 12.9 | 0.00 | 0.00 | 0.00 | 17 | 1022.0 |
| 20260903163003 | 25 | 135 | 3.2 | 11.3 | 0.00 | 0.00 | 0.00 | 18 | 1021.9 |
| 20260903162503 | 25 | 125 | 6.4 | 12.9 | 0.00 | 0.00 | 0.00 | 18 | 1021.9 |
| 20260903162003 | 25 | 144 | 6.4 | 14.5 | 0.00 | 0.00 | 0.00 | 19 | 1021.9 |
| 20260903161503 | 24 | 121 | 4.8 | 8.0 | 0.00 | 0.00 | 0.00 | 19 | 1022.0 |
| 20260903161003 | 24 | 128 | 1.6 | 8.0 | 0.00 | 0.00 | 0.00 | 20 | 1022.2 |
| 20260903160503 | 24 | 91 | 3.2 | 4.8 | 0.00 | 0.00 | 0.00 | 20 | 1022.2 |
| 20260903155503 | 23 | 113 | 3.2 | 9.7 | 0.00 | 0.00 | 0.00 | 20 | 1022.2 |
| 20260903155004 | 23 | 107 | 1.6 | 4.8 | 0.00 | 0.00 | 0.00 | 21 | 1022.2 |
| 20260903154003 | 23 | 138 | 6.4 | 11.3 | 0.00 | 0.00 | 0.00 | 21 | 1022.2 |
| 20260903153503 | 22 | 160 | 3.2 | 4.8 | 0.00 | 0.00 | 0.00 | 21 | 1022.2 |
| 20260903153003 | 22 | 157 | 3.2 | 8.0 | 0.00 | 0.00 | 0.00 | 23 | 1022.2 |
| 20260903152503 | 22 | 164 | 1.6 | 4.8 | 0.00 | 0.00 | 0.00 | 23 | 1022.2 |
| 20260903152003 | 22 | 163 | 1.6 | 8.0 | 0.00 | 0.00 | 0.00 | 23 | 1022.1 |
| 20260903151504 | 21 | 174 | 3.2 | 8.0 | 0.00 | 0.00 | 0.00 | 24 | 1022.0 |
| 20260903151002 | 21 | 191 | 4.8 | 8.0 | 0.00 | 0.00 | 0.00 | 24 | 1022.1 |
| 20260903145004 | 20 | 173 | 4.8 | 9.7 | 0.00 | 0.00 | 0.00 | 27 | 1022.0 |
| 20260903144003 | 19 | 195 | 0.0 | 1.6 | 0.00 | 0.00 | 0.00 | 25 | 1021.9 |
| 20260903143503 | 19 | 195 | 0.0 | 4.8 | 0.00 | 0.00 | 0.00 | 24 | 1021.8 |
| 20260903143004 | 18 | 195 | 0.0 | 4.8 | 0.00 | 0.00 | 0.00 | 26 | 1021.8 |
| 20260903142503 | 18 | 194 | 1.6 | 4.8 | 0.00 | 0.00 | 0.00 | 27 | 1021.8 |
| 20260903142003 | 18 | 194 | 0.0 | 4.8 | 0.00 | 0.00 | 0.00 | 26 | 1021.6 |
| 20260903141503 | 17 | 196 | 3.2 | 4.8 | 0.00 | 0.00 | 0.00 | 25 | 1021.6 |
| 20260903141004 | 17 | 196 | 3.2 | 4.8 | 0.00 | 0.00 | 0.00 | 25 | 1021.6 |
| 20260903140503 | 17 | 199 | 3.2 | 4.8 | 0.00 | 0.00 | 0.00 | 24 | 1021.5 |
| 20260903135503 | 16 | 229 | 0.0 | 1.6 | 0.00 | 0.00 | 0.00 | 25 | 1021.4 |
| 20260903135005 | 16 | 229 | 0.0 | 1.6 | 0.00 | 0.00 | 0.00 | 25 | 1021.4 |
| 20260903134504 | 16 | 229 | 1.6 | 4.8 | 0.00 | 0.00 | 0.00 | 25 | 1021.3 |
| 20260903134003 | 15 | 229 | 3.2 | 4.8 | 0.00 | 0.00 | 0.00 | 26 | 1021.1 |
| 20260903133003 | 15 | 240 | 3.2 | 8.0 | 0.00 | 0.00 | 0.00 | 27 | 1021.0 |
| 20260903132004 | 15 | 237 | 3.2 | 4.8 | 0.00 | 0.00 | 0.00 | 26 | 1021.2 |
| 20260903131503 | 15 | 258 | 6.4 | 12.9 | 0.00 | 0.00 | 0.00 | 26 | 1021.0 |
| 20260903131004 | 14 | 253 | 9.7 | 14.5 | 0.00 | 0.00 | 0.00 | 27 | 1021.0 |
| 20260903130503 | 13 | 257 | 4.8 | 8.0 | 0.00 | 0.00 | 0.00 | 28 | 1021.0 |
| 20260903130003 | 13 | 209 | 0.0 | 3.2 | 0.00 | 0.00 | 0.00 | 29 | 1021.0 |
| 20260903125503 | 14 | 202 | 0.0 | 1.6 | 0.00 | 0.00 | 0.00 | 29 | 1021.0 |
| 20260903125004 | 14 | 202 | 0.0 | 0.0 | 0.00 | 0.00 | 0.00 | 30 | 1021.0 |
| 20260903124503 | 14 | 202 | 0.0 | 0.0 | 0.00 | 0.00 | 0.00 | 30 | 1020.9 |
| 20260903124004 | 15 | 202 | 0.0 | 3.2 | 0.00 | 0.00 | 0.00 | 28 | 1020.9 |
| 20260903123503 | 15 | 202 | 0.0 | 1.6 | 0.00 | 0.00 | 0.00 | 28 | 1020.9 |
| 20260903122502 | 15 | 201 | 4.8 | 8.0 | 0.00 | 0.00 | 0.00 | 29 | 1020.9 |
| 20260903121503 | 13 | 232 | 0.0 | 3.2 | 0.00 | 0.00 | 0.00 | 30 | 1021.0 |
| 20260903121004 | 13 | 232 | 0.0 | 0.0 | 0.00 | 0.00 | 0.00 | 30 | 1021.0 |
| 20260903120503 | 13 | 232 | 0.0 | 0.0 | 0.00 | 0.00 | 0.00 | 30 | 1020.9 |
| 20260903115503 | 13 | 232 | 0.0 | 1.6 | 0.00 | 0.00 | 0.00 | 30 | 1020.9 |
| 20260903115003 | 13 | 234 | 0.0 | 0.0 | 0.00 | 0.00 | 0.00 | 31 | 1021.0 |
| 20260903114004 | 13 | 232 | 0.0 | 0.0 | 0.00 | 0.00 | 0.00 | 30 | 1021.1 |
| 20260903113503 | 13 | 232 | 0.0 | 0.0 | 0.00 | 0.00 | 0.00 | 30 | 1021.0 |
| 20260903112504 | 13 | 232 | 0.0 | 0.0 | 0.00 | 0.00 | 0.00 | 30 | 1021.0 |
| 20260903112003 | 13 | 232 | 0.0 | 0.0 | 0.00 | 0.00 | 0.00 | 30 | 1021.0 |
| 20260903111503 | 13 | 232 | 0.0 | 0.0 | 0.00 | 0.00 | 0.00 | 30 | 1021.0 |
| 20260903111004 | 13 | 232 | 0.0 | 1.6 | 0.00 | 0.00 | 0.00 | 31 | 1021.0 |
| 20260903110503 | 13 | 232 | 0.0 | 0.0 | 0.00 | 0.00 | 0.00 | 31 | 1020.9 |
| 20260903110003 | 13 | 232 | 0.0 | 0.0 | 0.00 | 0.00 | 0.00 | 31 | 1020.9 |
| 20260903105003 | 14 | 232 | 0.0 | 0.0 | 0.00 | 0.00 | 0.00 | 31 | 1020.9 |
| 20260903104503 | 15 | 232 | 0.0 | 1.6 | 0.00 | 0.00 | 0.00 | 32 | 1020.9 |
| 20260903103503 | 13 | 232 | 0.0 | 0.0 | 0.00 | 0.00 | 0.00 | 34 | 1020.9 |
| 20260903103003 | 13 | 232 | 0.0 | 1.6 | 0.00 | 0.00 | 0.00 | 34 | 1021.1 |
| 20260903102503 | 13 | 232 | 0.0 | 1.6 | 0.00 | 0.00 | 0.00 | 34 | 1021.1 |
| 20260903102003 | 13 | 232 | 0.0 | 3.2 | 0.00 | 0.00 | 0.00 | 32 | 1021.1 |
| 20260903101004 | 15 | 232 | 0.0 | 0.0 | 0.00 | 0.00 | 0.00 | 31 | 1021.2 |
| 20260903100503 | 15 | 232 | 0.0 | 0.0 | 0.00 | 0.00 | 0.00 | 30 | 1021.2 |
| 20260903095503 | 15 | 234 | 0.0 | 0.0 | 0.00 | 0.00 | 0.00 | 32 | 1021.3 |
| 20260903095003 | 15 | 234 | 0.0 | 0.0 | 0.00 | 0.00 | 0.00 | 33 | 1021.3 |
| 20260903094502 | 15 | 234 | 0.0 | 0.0 | 0.00 | 0.00 | 0.00 | 33 | 1021.3 |
| 20260903094003 | 15 | 234 | 0.0 | 0.0 | 0.00 | 0.00 | 0.00 | 33 | 1021.2 |
| 20260903093503 | 15 | 234 | 0.0 | 0.0 | 0.00 | 0.00 | 0.00 | 32 | 1021.3 |
| 20260903093004 | 16 | 234 | 0.0 | 3.2 | 0.00 | 0.00 | 0.00 | 32 | 1021.3 |
| 20260903092503 | 16 | 234 | 0.0 | 1.6 | 0.00 | 0.00 | 0.00 | 32 | 1021.2 |
| 20260903092003 | 16 | 234 | 0.0 | 0.0 | 0.00 | 0.00 | 0.00 | 31 | 1021.3 |
| 20260903091504 | 16 | 234 | 0.0 | 3.2 | 0.00 | 0.00 | 0.00 | 32 | 1021.3 |
| 20260903091003 | 16 | 234 | 0.0 | 3.2 | 0.00 | 0.00 | 0.00 | 31 | 1021.4 |
| 20260903090003 | 17 | 233 | 1.6 | 4.8 | 0.00 | 0.00 | 0.00 | 28 | 1021.5 |
| 20260903085503 | 17 | 232 | 0.0 | 1.6 | 0.00 | 0.00 | 0.00 | 29 | 1021.5 |
| 20260903084503 | 16 | 240 | 0.0 | 0.0 | 0.00 | 0.00 | 0.00 | 31 | 1021.6 |
| 20260903084012 | 16 | 242 | 0.0 | 4.8 | 0.00 | 0.00 | 0.00 | 31 | 1021.5 |
| 20260903082004 | 16 | 238 | 0.0 | 3.2 | 0.00 | 0.00 | 0.00 | 29 | 1021.7 |
| 20260903081003 | 16 | 243 | 3.2 | 4.8 | 0.00 | 0.00 | 0.00 | 30 | 1021.7 |
| 20260903080504 | 17 | 249 | 1.6 | 3.2 | 0.00 | 0.00 | 0.00 | 31 | 1021.7 |
| 20260903075503 | 17 | 236 | 3.2 | 4.8 | 0.00 | 0.00 | 0.00 | 32 | 1021.8 |
| 20260903074503 | 17 | 213 | 1.6 | 8.0 | 0.00 | 0.00 | 0.00 | 30 | 1021.7 |
| 20260903074004 | 17 | 203 | 6.4 | 9.7 | 0.00 | 0.00 | 0.00 | 29 | 1021.7 |
| 20260903073503 | 17 | 207 | 8.0 | 9.7 | 0.00 | 0.00 | 0.00 | 30 | 1021.8 |
| 20260903073003 | 17 | 211 | 1.6 | 4.8 | 0.00 | 0.00 | 0.00 | 33 | 1021.8 |
| 20260903072503 | 16 | 217 | 1.6 | 4.8 | 0.00 | 0.00 | 0.00 | 34 | 1021.7 |
| 20260903072003 | 16 | 223 | 0.0 | 1.6 | 0.00 | 0.00 | 0.00 | 33 | 1021.7 |
| 20260903071503 | 16 | 223 | 0.0 | 3.2 | 0.00 | 0.00 | 0.00 | 33 | 1021.8 |
| 20260903071004 | 16 | 223 | 0.0 | 1.6 | 0.00 | 0.00 | 0.00 | 34 | 1021.8 |
| 20260903070503 | 16 | 223 | 0.0 | 1.6 | 0.00 | 0.00 | 0.00 | 33 | 1021.8 |
| 20260903070003 | 16 | 223 | 0.0 | 4.8 | 0.00 | 0.00 | 0.00 | 33 | 1021.9 |
| 20260903065503 | 17 | 223 | 1.6 | 4.8 | 0.00 | 0.00 | 0.00 | 33 | 1021.9 |
| 20260903065003 | 17 | 241 | 0.0 | 1.6 | 0.00 | 0.00 | 0.00 | 34 | 1021.9 |
| 20260903064503 | 17 | 241 | 0.0 | 1.6 | 0.00 | 0.00 | 0.00 | 34 | 1021.9 |
| 20260903063503 | 17 | 295 | 0.0 | 0.0 | 0.00 | 0.00 | 0.00 | 33 | 1022.0 |
| 20260903063003 | 17 | 295 | 0.0 | 0.0 | 0.00 | 0.00 | 0.00 | 34 | 1022.1 |
| 20260903062503 | 17 | 295 | 0.0 | 0.0 | 0.00 | 0.00 | 0.00 | 34 | 1022.1 |
| 20260903062005 | 17 | 295 | 0.0 | 3.2 | 0.00 | 0.00 | 0.00 | 35 | 1022.1 |
| 20260903061004 | 17 | 201 | 0.0 | 3.2 | 0.00 | 0.00 | 0.00 | 35 | 1022.1 |
| 20260903060503 | 17 | 200 | 0.0 | 1.6 | 0.00 | 0.00 | 0.00 | 35 | 1022.2 |
| 20260903060003 | 17 | 194 | 0.0 | 1.6 | 0.00 | 0.00 | 0.00 | 35 | 1022.3 |
| 20260903055503 | 17 | 192 | 0.0 | 0.0 | 0.00 | 0.00 | 0.00 | 34 | 1022.3 |
| 20260903055003 | 17 | 192 | 0.0 | 0.0 | 0.00 | 0.00 | 0.00 | 33 | 1022.3 |
| 20260903053503 | 17 | 192 | 0.0 | 0.0 | 0.00 | 0.00 | 0.00 | 33 | 1022.5 |
| 20260903052529 | 18 | 192 | 1.6 | 3.2 | 0.00 | 0.00 | 0.00 | 33 | 1022.4 |
| 20260903052004 | 18 | 192 | 0.0 | 0.0 | 0.00 | 0.00 | 0.00 | 33 | 1022.4 |
| 20260903051505 | 18 | 192 | 0.0 | 0.0 | 0.00 | 0.00 | 0.00 | 33 | 1022.4 |
| 20260903051003 | 18 | 192 | 0.0 | 0.0 | 0.00 | 0.00 | 0.00 | 33 | 1022.4 |
| 20260903050503 | 18 | 192 | 0.0 | 0.0 | 0.00 | 0.00 | 0.00 | 33 | 1022.4 |
| 20260903050003 | 18 | 192 | 0.0 | 0.0 | 0.00 | 0.00 | 0.00 | 33 | 1022.4 |
| 20260903045504 | 18 | 192 | 0.0 | 0.0 | 0.00 | 0.00 | 0.00 | 32 | 1022.4 |
| 20260903045003 | 19 | 192 | 0.0 | 0.0 | 0.00 | 0.00 | 0.00 | 32 | 1022.4 |
| 20260903044004 | 20 | 192 | 1.6 | 4.8 | 0.00 | 0.00 | 0.00 | 32 | 1022.4 |
| 20260903043503 | 20 | 190 | 1.6 | 4.8 | 0.00 | 0.00 | 0.00 | 32 | 1022.3 |
| 20260903043003 | 20 | 186 | 3.2 | 4.8 | 0.00 | 0.00 | 0.00 | 31 | 1022.3 |
| 20260903042503 | 20 | 186 | 3.2 | 4.8 | 0.00 | 0.00 | 0.00 | 31 | 1022.2 |
| 20260903041003 | 20 | 174 | 0.0 | 3.2 | 0.00 | 0.00 | 0.00 | 31 | 1022.2 |
| 20260903040504 | 20 | 175 | 3.2 | 4.8 | 0.00 | 0.00 | 0.00 | 30 | 1022.0 |
| 20260903040003 | 21 | 179 | 3.2 | 4.8 | 0.00 | 0.00 | 0.00 | 30 | 1022.0 |
| 20260903035503 | 21 | 180 | 4.8 | 4.8 | 0.00 | 0.00 | 0.00 | 30 | 1021.9 |
| 20260903035003 | 21 | 198 | 0.0 | 3.2 | 0.00 | 0.00 | 0.00 | 29 | 1021.9 |
| 20260903034503 | 21 | 198 | 0.0 | 4.8 | 0.00 | 0.00 | 0.00 | 29 | 1021.9 |
| 20260903034003 | 21 | 199 | 3.2 | 4.8 | 0.00 | 0.00 | 0.00 | 29 | 1021.9 |
| 20260903033503 | 22 | 202 | 0.0 | 0.0 | 0.00 | 0.00 | 0.00 | 29 | 1021.9 |
| 20260903032504 | 22 | 204 | 1.6 | 4.8 | 0.00 | 0.00 | 0.00 | 28 | 1021.7 |
| 20260903032003 | 23 | 204 | 6.4 | 11.3 | 0.00 | 0.00 | 0.00 | 28 | 1021.7 |
| 20260903031504 | 23 | 187 | 11.3 | 14.5 | 0.00 | 0.00 | 0.00 | 28 | 1021.5 |
| 20260903031003 | 23 | 189 | 8.0 | 11.3 | 0.00 | 0.00 | 0.00 | 28 | 1021.4 |